GALAXY 13 (HORIZONS-1)

Last updated on Tue Sep 22 2026 00:03:10 GMT+0000 (Coordinated Universal Time)

1 27954U 03044A 26264.53067086 .00000129 00000+0 00000+0 0 9993 2 27954 1.6617 82.4816 0001665 108.0747 210.8906 1.00272093 47533
UTC large
Height (km)
Speed (km/s)
/
Latitude / Longitude
Inclination (degrees)
Orbital Period (minutes)
Azimuth
Elevation
Range (km)
Doppler Factor

Next 0 passes for location: London (51.5072 / 0.1276)

No passes found over London.
GALAXY 13 (HORIZONS-1)